Location: Oshawa
(43.9000°N, 78.8670°W)
Time: 10:46:31
(UTC-04:00)

Transit 2A Rocket - Visible Passes

Search period start: 29 July 2014 00:00
Search period end: 08 August 2014 00:00
Orbit: 596 x 913 km, 66.7° (Epoch: 29 July)

Date Brightness Start Highest point End Pass type
(mag) Time Alt. Az. Time Alt. Az. Time Alt. Az.
29 Jul 5.2 00:49:24 10° NW 00:53:02 54° WNW 00:53:02 54° WNW visible
29 Jul 7.1 22:27:05 10° NNE 22:28:54 12° NE 22:30:46 10° ENE visible
30 Jul 4.8 00:07:46 10° NNW 00:12:13 69° NE 00:12:13 69° NE visible
30 Jul 7.2 01:51:53 10° WNW 01:52:10 11° WNW 01:52:10 11° WNW visible
30 Jul 5.5 23:26:18 10° NNW 23:30:34 41° NE 23:31:26 37° E visible
31 Jul 6.6 01:09:13 10° WNW 01:11:23 21° W 01:11:23 21° W visible
31 Jul 6.2 22:44:59 10° N 22:48:46 26° NE 22:50:41 20° E visible
01 Aug 5.6 00:27:09 10° NW 00:30:38 40° W 00:30:38 40° W visible
01 Aug 6.7 22:03:54 10° N 22:06:51 17° NE 22:09:54 10° E visible
01 Aug 4.6 23:45:21 10° NW 23:49:55 78° WSW 23:49:56 78° WSW visible
02 Aug 7.0 21:23:24 10° NNE 21:24:48 11° NE 21:26:14 10° NE visible
02 Aug 4.9 23:03:45 10° NNW 23:08:16 61° NE 23:09:16 49° ESE visible
03 Aug 7.0 00:47:31 10° WNW 00:49:13 15° W 00:49:13 15° W visible
03 Aug 5.6 22:22:19 10° NNW 22:26:32 37° NE 22:28:38 25° E visible
04 Aug 6.1 00:05:02 10° NW 00:08:36 28° WSW 00:08:36 28° WSW visible
04 Aug 6.3 21:41:02 10° N 21:44:42 23° NE 21:48:03 12° E visible
04 Aug 5.1 23:23:03 10° NW 23:27:31 50° WSW 23:28:00 48° SW visible
05 Aug 4.7 22:41:18 10° NNW 22:45:55 88° WSW 22:47:28 44° SSE visible
06 Aug 7.3 00:26:56 10° W 00:27:25 10° W 00:27:25 10° W visible
06 Aug 5.0 21:59:44 10° NNW 22:04:14 55° NE 22:06:57 24° ESE visible
06 Aug 6.7 23:43:12 10° WNW 23:46:31 19° WSW 23:46:55 19° WSW visible
07 Aug 5.7 21:18:19 10° NNW 21:22:28 33° NE 21:26:30 12° ESE visible
07 Aug 6.0 23:00:52 10° NW 23:05:03 33° WSW 23:06:28 28° SW visible
